Погода в Шетпе

Казахстан     44°08′19″N   52°09′35″E
темп.,
°C
ветер,
м/с
пор.,
м/с
влажн.,
%
обл.,
%
осадки,
мм/ч
давл.,
гПа
погр.,
м
5 августа, чт
чт523:00+34ссз33191 0.0 101231
02:00+30св11242 0.0 101211
05:00+29зюз11255 0.0 101111
08:00+32в11205 0.0 101113
11:00+35с331658 0.0 1011571
14:00+39св221265 0.0 10103018
17:00+40св441099 0.0 10094610
20:00+37с991399 0.0 10091129
6 августа, пт
пт623:00+32с46205 0.0 1010127
02:00+30ссз222599 0.0 101013
05:00+27ссз23355 0.0 101019
08:00+29с12345 0.0 101090
11:00+33с33235 0.0 1010533
14:00+38с22165 0.0 10091601
17:00+39ссз34131 0.0 10084063
20:00+35с99220 0.0 1008766
7 августа, сб
сб723:00+31с35270 0.0 1009175
02:00+29ссв22310 0.0 100933
05:00+28всв22320 0.0 100912
08:00+29всв25250 0.0 1010170
11:00+36всв55170 0.0 1009688
14:00+39всв54140 0.0 10092575
17:00+40св55110 0.0 10083612
20:00+39всв67110 0.0 1008623
8 августа, вс
вс823:00+34всв712170 0.0 1009267
02:00+32в59190 0.0 1010133
05:00+30вюв44200 0.0 101028
08:00+32юв410210 0.0 1011267
11:00+39юв99150 0.0 1011919
14:00+42юв65101 0.0 10103765
17:00+42ююв4490 0.0 10104350
20:00+41юв57100 0.0 1010214
9 августа, пн
пн923:00+35сз22155 0.0 101116
02:00+34ююв581824 0.0 1011129
05:00+31ююв610225 0.0 1012178
08:00+31ююв613255 0.0 1013383
11:00+37ююв78155 0.0 1013795
14:00+40ююв55115 0.0 10122141
17:00+41юв5595 0.0 10123312
20:00+39юв6710100 0.0 1011367